Weather History for KHSE - July, 2013

Change the Weather History Date:

Wednesday, July 10, 2013

  Actual Average Record
Temperature  
Mean Temperature 81 °F 79 °F  
Max Temperature 86 °F 85 °F 96 °F (1992)
Min Temperature 76 °F 74 °F 58 °F (1984)
Degree Days  
Heating Degree Days 0 0  
Month to date heating degree days 0 0  
Since 1 June heating degree days 0 3  
Since 1 July heating degree days 0 0  
Cooling Degree Days 16 14  
Month to date cooling degree days 152 137  
Year to date cooling degree days 714 588  
Since 1 June cooling degree days 552 445  
Growing Degree Days 30 (Base 50)    
Moisture  
Dew Point 74 °F    
Average Humidity 80    
Maximum Humidity 94    
Minimum Humidity 65    
Precipitation  
Precipitation 0.00 in 0.16 in 3.05 in (1968)
Month to date precipitation 0.59 1.43  
Year to date precipitation 26.14 26.70  
Snow  
Snow 0.00 in - - ()
Month to date snowfall 0.0  
Since 1 July snowfall 0.0  
Snow Depth 0.00 in    
Sea Level Pressure  
Sea Level Pressure 30.09 in    
Wind  
Wind Speed 9 mph (SW)    
Max Wind Speed 17 mph    
Max Gust Speed 22 mph    
Visibility 10 miles    
Events      
T = Trace of Precipitation, MM = Missing Value Source: NWS Daily Summary

Daily Weather History Graph

Daily Weather History Graph

Search for Another Location

Airport or City:

Trip Planner

Search our weather history database for the weather conditions in past years. The results will help you decide how hot, cold, wet, or windy it might be!

Date:

Astronomy

Jul. 10, 2013 Rise Set
Actual Time 5:56 AM EDT 8:19 PM EDT
Civil Twilight 5:26 AM EDT 8:48 PM EDT
Nautical Twilight 4:50 AM EDT 9:24 PM EDT
Astronomical Twilight 4:11 AM EDT 10:04 PM EDT
Moon 8:08 AM EDT (7/10) 9:35 PM EDT (7/10)
Length of Visible Light 15h 21m
Length of Day
14h 22m
Waxing Crescent, 5% of the Moon is Illuminated
Jul 10
Waxing Crescent
Jul 15
First Quarter
Jul 22
Full
Jul 29
Last Quarter
Aug 6
New

Hourly Weather History & Observations

Time (EDT) Temp. Heat Index Dew Point Humidity Pressure Visibility Wind Dir Wind Speed Gust Speed Precip Events Conditions
12:51 AM 78.1 °F - 73.9 °F 87% 30.16 in 10.0 mi SW 5.8 mph - N/A   Clear
1:51 AM 78.1 °F - 73.0 °F 84% 30.14 in 10.0 mi WSW 5.8 mph - N/A   Mostly Cloudy
2:51 AM 77.0 °F - 73.9 °F 90% 30.12 in 10.0 mi SW 5.8 mph - N/A   Clear
3:51 AM 77.0 °F - 73.0 °F 88% 30.11 in 10.0 mi SSW 9.2 mph - N/A   Clear
4:51 AM 77.0 °F - 73.0 °F 88% 30.12 in 10.0 mi SW 5.8 mph - N/A   Clear
5:51 AM 75.9 °F - 73.0 °F 91% 30.12 in 10.0 mi WSW 5.8 mph - N/A   Clear
6:51 AM 77.0 °F - 73.9 °F 90% 30.12 in 10.0 mi SW 4.6 mph - N/A   Clear
7:51 AM 79.0 °F - 73.0 °F 82% 30.12 in 10.0 mi WSW 5.8 mph - N/A   Clear
8:51 AM 80.1 °F 84.2 °F 73.0 °F 79% 30.12 in 10.0 mi SW 6.9 mph - N/A   Clear
9:51 AM 82.0 °F 87.9 °F 73.9 °F 76% 30.12 in 10.0 mi SW 8.1 mph - N/A   Clear
10:51 AM 82.0 °F 87.9 °F 73.9 °F 76% 30.12 in 10.0 mi SW 9.2 mph - N/A   Clear
11:51 AM 82.9 °F 89.4 °F 73.9 °F 74% 30.12 in 10.0 mi SW 11.5 mph - N/A   Clear
12:51 PM 84.9 °F 92.1 °F 73.9 °F 69% 30.11 in 10.0 mi SW 10.4 mph - N/A   Clear
1:51 PM 86.0 °F 93.8 °F 73.9 °F 67% 30.09 in 10.0 mi SW 8.1 mph - N/A   Clear
2:51 PM 84.9 °F 93.3 °F 75.0 °F 72% 30.08 in 10.0 mi SSW 11.5 mph - N/A   Clear
3:51 PM 84.0 °F 91.2 °F 73.9 °F 72% 30.06 in 10.0 mi SSW 11.5 mph - N/A   Clear
4:51 PM 84.0 °F 91.2 °F 73.9 °F 72% 30.05 in 10.0 mi SW 9.2 mph - N/A   Clear
5:51 PM 84.0 °F 91.9 °F 75.0 °F 74% 30.04 in 10.0 mi SSW 10.4 mph - N/A   Partly Cloudy
6:51 PM 82.0 °F 87.4 °F 73.0 °F 74% 30.02 in 10.0 mi SW 13.8 mph - N/A   Clear
7:51 PM 80.1 °F 84.5 °F 73.9 °F 81% 30.04 in 10.0 mi SW 10.4 mph - N/A   Clear
8:51 PM 79.0 °F - 73.0 °F 82% 30.04 in 10.0 mi SW 11.5 mph 19.6 mph N/A   Partly Cloudy
9:51 PM 78.1 °F - 73.9 °F 87% 30.04 in 8.0 mi SW 8.1 mph - N/A   Clear
10:51 PM 78.1 °F - 73.0 °F 84% 30.04 in 10.0 mi SW 9.2 mph - N/A   Clear
11:51 PM 78.1 °F - 73.0 °F 84% 30.04 in 10.0 mi SW 9.2 mph - N/A   Clear